Aeroporto :
LOGIN :

Iscrizione | Disclaimer

   EN    FR    IT 

 










Sommario :    VFR   VFR Marginale   IFR   IFR Intensivo   IFR Molto Intensivo
Visibilità : 
Base nubi : 
>= 8 km
>= 3000ft
5 / 8 km
1000 / 3000 ft
1500m / 5 km
500 / 1000 ft
800 / 1500m
200 / 500 ft
< 800m
< 200 ft
Simboli :   Temporali  Nebbia  Neve Forte  Precipitazioni Forti  Vento > 20 kt
SIGMETs :   Varie  Temporali  Ghiacco  Turbolenza  Onda orograficha  Ceneri Vulcaniche







- Altitudine del aeroporto : 659 ft
- Codice IATA : LGG


EBLG - Liège

ULTIMO METAR :
  • 230750Z 22010KT 9999 SCT040 19/13 Q1016 NOSIG

METARs OBSOLETI :
  • 230720Z 23009KT 9999 BKN040 18/13 Q1016 NOSIG
  • 230650Z 24009KT 9999 BKN040 18/13 Q1016 NOSIG
  • 230620Z 24008KT 9999 BKN039 17/13 Q1016 NOSIG
  • 230550Z 24008KT 9999 BKN039 17/13 Q1016 NOSIG
  • 230520Z 23010KT 9999 BKN037 17/13 Q1016 NOSIG

TAF TAF EBLG
Valido dal 23 a 06 ore il 24 a 12 ore UTC


230553Z 2306/2412 25011KT 9999 SCT020 BKN040
Nessun NOTAM noto per questo aeroporto.



MetMap, La meteo Aeronautica in un colpo d'occhio ! - Copyright ORBIFLY Dicembre 2007 - Disclaimer

ORBIFLY MET'MAP TEAM :

Programmazione e sviluppo : Alexandra Zaïnal
Concezione e sviluppo : Baudouin d'Aumeries
Co-Programmazione e sviluppo : Marc-Olivier Méhu
Supporto tecnico e logistico : Manuel Goepfert
Aiuto per la traduzione : Arnaldo La Scala

Contatto : metmap@orbifly.com




FONTI E CREDITI :

   NOAA